Stations météo

Publicité
Cherbourg, France (7024): Température de l'air & dewpoint: 15.10.2017 10:00:00 - 21.10.2017 10:00:00 (CEST)Cherbourg, France (7024): Température de l'air 5cm: 15.10.2017 10:00:00 - 21.10.2017 10:00:00 (CEST)Cherbourg, France (7024): Température de l'air -20cm & Température de l'air -100cm: 15.10.2017 10:00:00 - 21.10.2017 10:00:00 (CEST)Cherbourg, France (7024): Vitesse du vent & gusts: 15.10.2017 10:00:00 - 21.10.2017 10:00:00 (CEST)Cherbourg, France (7024): Direction du vent: 15.10.2017 10:00:00 - 21.10.2017 10:00:00 (CEST)Cherbourg, France (7024): reduced air pressure: 15.10.2017 10:00:00 - 21.10.2017 10:00:00 (CEST)Cherbourg, France (7024): visibility: 15.10.2017 10:00:00 - 21.10.2017 10:00:00 (CEST)Cherbourg, France (7024): Ensoleillement: 15.10.2017 10:00:00 - 21.10.2017 10:00:00 (CEST)Cherbourg, France (7024): Quantités de précipitations: 15.10.2017 10:00:00 - 21.10.2017 10:00:00 (CEST)
Date & Time tt [°C] td [°C] tt 5cm [°C] tt -20cm [°C] tt -100cm [°C] ff [km/h] ff [knt] fx [km/h] fx [knt] dd ppp [hPa] vv [km] sd [min] rr [mm]
21.10.2017 10:00:00 13,1 8,0 10,4 13,9 14,6 42 23 68 37 SW 1007,5 10 7 0,0
21.10.2017 09:00:00 12,7 8,0 10,7 13,9 14,6 37 20 67 36 SW 1007,1 10 2 0,0
21.10.2017 08:00:00 12,9 8,6 11,0 14,0 14,6 37 20 67 36 SW 1006,7 10 0 0,0
21.10.2017 07:00:00 12,9 9,3 11,5 14,0 14,6 37 20 56 31 SW 1006,4 10 0 0,0
21.10.2017 06:00:00 12,8 10,0 11,3 14,0 14,6 34 18 59 32 SW 1006,1 17 0 0,0
21.10.2017 05:00:00 13,0 11,4 12,2 14,0 14,6 35 19 54 29 SW 1005,8 10 0 0,6
21.10.2017 04:00:00 12,9 11,5 11,7 14,0 14,6 30 16 48 26 SSW 1005,8 18 0 0,2
21.10.2017 03:00:00 12,6 11,3 11,9 14,0 14,6 35 19 56 30 SW 1005,8 10 0 1,0
21.10.2017 02:00:00 13,5 12,1 13,0 14,0 14,6 42 23 67 36 WSW 1005,5 5 0 1,0
21.10.2017 01:00:00 14,9 13,3 13,2 14,0 14,6 31 17 56 30 S 1004,9 10 0 0,2
21.10.2017 00:00:00 14,3 12,0 13,2 14,0 14,6 31 17 62 34 S 1005,9 10 0 0,0
20.10.2017 23:00:00 14,3 10,7 12,4 14,0 14,6 35 19 59 32 S 1007,0 10 0 0,0
20.10.2017 22:00:00 13,9 9,3 12,8 14,0 14,6 35 19 55 30 S 1007,9 10 0 0,0
20.10.2017 21:00:00 13,6 8,8 11,6 14,0 14,6 28 15 43 23 S 1008,7 10 0 0,0
20.10.2017 20:00:00 12,9 8,8 11,6 14,0 14,6 22 12 33 18 S 1009,5 10 0 0,0
20.10.2017 19:00:00 13,5 8,3 12,4 13,9 14,6 22 12 41 22 S 1010,3 10 18 0,0
20.10.2017 18:00:00 13,9 8,5 13,5 13,9 14,6 21 11 48 26 SSW 1010,7 10 43 0,0
20.10.2017 17:00:00 14,8 8,1 15,9 13,9 14,6 27 15 48 26 SSW 1011,3 20 56 0,0
20.10.2017 16:00:00 14,9 6,7 13,8 13,9 14,6 29 16 48 26 SW 1011,7 10 21 0,0
20.10.2017 15:00:00 14,2 8,6 14,1 13,9 14,6 29 16 47 26 SW 1011,5 10 0 0,0
20.10.2017 14:00:00 14,4 6,5 14,1 13,9 14,6 28 15 47 25 WSW 1011,5 10 29 0,0
20.10.2017 13:00:00 13,6 7,6 14,1 13,9 14,6 31 17 48 26 W 1011,9 10 26 0,0
20.10.2017 12:00:00 13,8 7,8 13,4 14,0 14,6 31 17 56 30 W 1011,5 10 41 0,0
20.10.2017 11:00:00 13,0 6,8 12,2 14,1 14,6 31 17 57 31 W 1010,8 10 51 0,0
20.10.2017 10:00:00 12,4 7,3 10,7 14,1 14,6 28 15 57 31 W 1010,0 10 56 0,0
20.10.2017 09:00:00 11,6 6,7 9,8 14,1 14,6 36 20 58 31 W 1008,6 19 3 0,0
20.10.2017 08:00:00 11,3 6,2 9,6 14,2 14,6 41 22 63 34 W 1007,5 10 0 0,0
20.10.2017 07:00:00 12,0 7,9 10,2 14,3 14,6 39 21 67 36 W 1006,4 10 0 0,2
20.10.2017 06:00:00 11,8 9,0 9,8 14,3 14,6 39 21 70 38 W 1005,5 10 0 0,0
20.10.2017 05:00:00 12,0 8,8 10,0 14,4 14,6 42 23 71 39 WSW 1004,4 10 0 0,2
20.10.2017 04:00:00 11,8 8,8 10,3 14,4 14,6 42 23 68 37 WSW 1003,7 10 0 0,0
20.10.2017 03:00:00 12,0 7,5 10,6 14,5 14,6 41 22 60 32 WSW 1003,4 10 0 0,0
20.10.2017 02:00:00 12,0 8,1 10,7 14,5 14,6 37 20 57 31 WSW 1003,1 10 0 0,2
20.10.2017 01:00:00 12,0 8,8 10,5 14,6 14,6 29 16 52 28 WSW 1002,5 10 0 0,0
20.10.2017 00:00:00 12,3 9,7 10,9 14,6 14,6 29 16 45 25 WSW 1002,2 10 0 0,0
19.10.2017 23:00:00 12,4 10,5 11,4 14,6 14,6 31 17 49 26 WSW 1001,6 10 0 0,2
19.10.2017 22:00:00 13,2 12,3 12,5 14,7 14,6 31 17 61 33 SW 1000,9 5 0 2,8
19.10.2017 21:00:00 13,0 11,9 12,4 14,7 14,6 39 21 63 34 S 1000,3 8 0 2,1
19.10.2017 20:00:00 13,5 12,1 12,7 14,7 14,6 39 21 56 31 SSE 1000,6 7 0 4,4
19.10.2017 19:00:00 14,5 11,6 12,9 14,7 14,6 28 15 50 27 S 1001,4 9 17 0,8
19.10.2017 18:00:00 15,8 11,2 15,3 14,7 14,6 26 14 47 26 S 1002,1 10 14 0,0
19.10.2017 17:00:00 15,8 11,6 15,8 14,7 14,6 26 14 41 22 S 1002,5 10 0 0,0
19.10.2017 16:00:00 16,1 11,3 16,5 14,7 14,6 28 15 45 24 SSW 1002,9 10 2 0,0
19.10.2017 15:00:00 15,7 11,5 16,0 14,7 14,6 29 16 45 24 SSW 1003,3 10 0 0,0
19.10.2017 14:00:00 15,4 13,6 15,0 14,7 14,6 22 12 38 21 SSW 1003,6 10 2 0,0
19.10.2017 13:00:00 15,1 14,3 15,0 14,7 14,6 29 16 51 28 SSW 1004,1 3,0 0 0,0
19.10.2017 12:00:00 15,3 13,7 15,5 14,7 14,6 26 14 44 24 S 1004,1 9 0 0,0
19.10.2017 11:00:00 15,0 13,2 15,7 14,7 14,6 22 12 34 19 S 1004,4 10 36 0,0
19.10.2017 10:00:00 14,9 13,9 14,2 14,7 14,6 16 9 27 15 S 1004,6 5 38 0,0
19.10.2017 09:00:00 14,6 14,0 13,9 14,7 14,6 16 9 24 13 SSE 1004,4 3,5 0 0,0
19.10.2017 08:00:00 14,9 14,3 14,3 14,7 14,6 16 9 29 15 SE 1004,8 4,5 0 0,0
19.10.2017 07:00:00 15,2 14,6 14,8 14,7 14,6 16 9 25 13 SE 1005,8 2,8 0 0,0
19.10.2017 06:00:00 15,0 14,4 13,7 14,7 14,6 10 6 20 11 ESE 1006,6 0,2 0 0,2
19.10.2017 05:00:00 14,3 13,7 13,2 14,7 14,6 9 5 15 8 E 1007,2 3,7 0 0,0
19.10.2017 04:00:00 14,0 13,4 12,8 14,7 14,6 8 4 11 6 ENE 1008,2 5 0 0,0
19.10.2017 03:00:00 13,6 12,8 12,3 14,7 14,6 2 1 7 4 - 1009,0 6 0 0,0
19.10.2017 02:00:00 13,7 12,9 12,8 14,8 14,6 2 1 5 3 - 1009,1 7 0 0,0
19.10.2017 01:00:00 13,6 13,0 12,0 14,8 14,6 0 0 5 3 N 1009,8 7 0 0,0
19.10.2017 00:00:00 13,4 12,6 10,0 14,8 14,6 2 1 5 3 - 1010,2 6 0 0,0
18.10.2017 23:00:00 13,6 12,7 11,5 14,8 14,6 0 0 4 2 N 1010,6 6 0 0,0
18.10.2017 22:00:00 14,1 13,3 11,3 14,8 14,6 4 2 6 4 S 1010,4 9 0 0,0
18.10.2017 21:00:00 14,6 13,8 12,3 14,8 14,6 4 2 7 4 - 1010,3 8 0 0,0
18.10.2017 20:00:00 14,7 13,4 12,4 14,7 14,6 2 1 8 5 - 1010,3 7 0 0,0
18.10.2017 19:00:00 15,7 14,4 15,1 14,7 14,6 8 4 10 6 W 1010,2 10 0 0,0
18.10.2017 18:00:00 16,4 14,2 16,4 14,7 14,6 8 4 12 6 SW 1010,0 10 0 0,0
18.10.2017 17:00:00 16,8 14,1 17,6 14,6 14,6 5 3 14 8 - 1009,9 10 0 0,0
18.10.2017 16:00:00 17,7 14,4 19,4 14,6 14,6 5 3 19 10 SW 1009,7 10 0 0,0
18.10.2017 15:00:00 17,2 14,3 18,2 14,5 14,6 15 8 23 13 SSW 1010,0 10 5 0,0
18.10.2017 14:00:00 16,7 14,9 17,9 14,5 14,6 16 9 23 13 S 1010,5 10 0 0,0
18.10.2017 13:00:00 16,1 15,1 15,9 14,5 14,6 16 9 22 12 SSW 1011,0 6 4 0,0
18.10.2017 12:00:00 15,3 14,7 15,6 14,5 14,6 11 6 20 11 SSW 1010,8 1,3 0 0,0
18.10.2017 11:00:00 15,0 14,4 14,2 14,5 14,6 13 7 19 10 S 1010,9 1,7 0 0,4
18.10.2017 10:00:00 14,3 13,7 13,6 14,5 14,6 11 6 24 13 SSW 1010,7 2,7 0 0,0
18.10.2017 09:00:00 13,8 13,0 13,1 14,5 14,6 15 8 21 11 S 1010,5 4,8 0 0,0
18.10.2017 08:00:00 13,5 12,7 12,6 14,5 14,6 15 8 19 10 S 1010,4 6 0 0,0
18.10.2017 07:00:00 13,3 12,5 12,7 14,5 14,6 5 3 16 9 S 1010,5 7 0 0,0
18.10.2017 06:00:00 13,6 12,8 13,2 14,5 14,6 11 6 17 9 S 1010,5 8 0 0,0
18.10.2017 05:00:00 13,9 13,1 13,5 14,5 14,6 9 5 15 8 S 1010,8 8 0 0,0
18.10.2017 04:00:00 14,2 13,4 13,6 14,5 14,6 9 5 14 7 SSE 1011,4 7 0 0,2
18.10.2017 03:00:00 14,2 13,4 13,5 14,5 14,6 9 5 14 7 SE 1012,0 8 0 0,0
18.10.2017 02:00:00 14,3 13,3 13,6 14,5 14,7 9 5 21 11 ESE 1012,6 9 0 0,0
18.10.2017 01:00:00 14,4 13,3 13,5 14,5 14,6 16 9 27 14 ESE 1013,0 10 0 0,0
18.10.2017 00:00:00 14,3 12,8 13,5 14,5 14,6 15 8 34 18 E 1013,8 10 0 0,0
17.10.2017 23:00:00 14,4 12,6 13,1 14,5 14,6 22 12 34 18 E 1014,2 10 0 0,0
17.10.2017 22:00:00 14,1 11,3 13,0 14,5 14,6 18 10 30 16 E 1014,9 10 0 0,0
17.10.2017 21:00:00 13,9 10,5 12,5 14,5 14,6 18 10 28 15 E 1015,7 10 0 0,0
17.10.2017 20:00:00 13,5 10,1 11,9 14,5 14,6 15 8 25 14 E 1016,0 10 0 0,0
17.10.2017 19:00:00 13,4 9,8 12,2 14,5 14,6 16 9 29 15 E 1016,2 10 29 0,0
17.10.2017 18:00:00 13,8 9,6 13,4 14,5 14,6 15 8 25 13 ENE 1016,7 10 5 0,0
17.10.2017 17:00:00 14,8 9,4 15,8 14,4 14,6 13 7 23 13 ENE 1017,4 10 28 0,0
17.10.2017 16:00:00 15,0 7,8 17,2 14,4 14,6 11 6 17 9 E 1018,2 10 2 0,0
17.10.2017 15:00:00 14,9 7,2 17,0 14,4 14,6 9 5 15 8 E 1019,1 10 2 0,0
17.10.2017 14:00:00 14,9 10,3 17,8 14,4 14,6 9 5 16 9 E 1019,9 10 27 0,0
17.10.2017 13:00:00 13,9 10,1 12,8 14,4 14,7 5 3 10 6 SSE 1021,2 10 10 0,0
17.10.2017 12:00:00 12,1 10,2 12,1 14,4 14,6 8 4 14 8 SE 1021,4 10 0 0,0
17.10.2017 11:00:00 12,0 10,2 10,6 14,4 14,6 5 3 10 5 SSE 1021,6 10 0 0,0
17.10.2017 10:00:00 10,7 9,3 9,9 14,5 14,6 5 3 11 6 SSW 1021,8 10 0 0,0
17.10.2017 09:00:00 10,3 9,1 5,8 14,5 14,6 8 4 13 7 S 1021,4 10 0 0,0
17.10.2017 08:00:00 9,0 7,6 5,8 14,6 14,6 4 2 11 6 SSW 1021,3 10 0 0,0
17.10.2017 07:00:00 9,5 8,1 7,3 14,6 14,6 9 5 14 8 S 1021,6 10 0 0,0
17.10.2017 06:00:00 9,5 7,8 6,1 14,7 14,6 11 6 15 8 SW 1021,6 10 0 0,0
17.10.2017 05:00:00 9,7 7,6 6,7 14,7 14,6 11 6 18 10 SW 1021,4 10 0 0,0
17.10.2017 04:00:00 9,9 7,5 8,1 14,8 14,6 13 7 21 12 SW 1022,1 10 0 0,0
17.10.2017 03:00:00 11,0 7,9 8,7 14,9 14,6 16 9 24 13 SW 1022,3 10 0 0,0
17.10.2017 02:00:00 10,5 7,9 8,2 14,9 14,6 16 9 21 11 SW 1022,4 10 0 0,0
17.10.2017 01:00:00 10,2 7,1 8,2 15,0 14,6 15 8 24 13 SW 1022,6 10 0 0,0
17.10.2017 00:00:00 11,4 7,1 9,4 15,1 14,6 16 9 27 15 WSW 1022,3 10 0 0,0
16.10.2017 23:00:00 12,5 7,2 10,5 15,1 14,6 18 10 35 19 WSW 1021,9 10 0 0,0
16.10.2017 22:00:00 12,8 7,9 10,8 15,2 14,6 21 11 32 17 WSW 1021,6 10 0 0,0
16.10.2017 21:00:00 13,4 9,6 11,3 15,2 14,6 16 9 26 14 WSW 1021,1 10 0 0,0
16.10.2017 20:00:00 14,5 10,1 13,0 15,2 14,6 15 8 28 15 WSW 1020,8 10 0 0,0
16.10.2017 19:00:00 15,2 11,0 14,2 15,2 14,6 18 10 30 16 WSW 1019,7 10 19 0,0
16.10.2017 18:00:00 15,9 11,9 15,3 15,2 14,6 15 8 28 15 SW 1019,1 10 0 0,0
16.10.2017 17:00:00 16,0 11,6 15,2 15,2 14,6 16 9 36 19 SW 1018,8 10 0 0,0
16.10.2017 16:00:00 16,7 11,0 16,0 15,2 14,6 28 15 45 25 WSW 1018,2 10 0 0,0
16.10.2017 15:00:00 17,8 14,5 17,4 15,2 14,6 28 15 55 30 SW 1017,1 10 0 0,0
16.10.2017 14:00:00 18,4 14,9 17,9 15,2 14,6 31 17 59 32 SSW 1016,6 10 0 0,0
16.10.2017 13:00:00 19,7 14,9 20,4 15,2 14,6 39 21 60 32 SSW 1015,9 10 0 0,0
16.10.2017 12:00:00 19,8 14,6 19,9 15,2 14,6 41 22 65 35 SSW 1015,5 10 12 0,0
16.10.2017 11:00:00 20,0 13,9 18,7 15,2 14,6 37 20 66 35 SSW 1015,3 10 22 0,0
16.10.2017 10:00:00 18,8 13,2 17,2 15,2 14,6 31 17 49 27 S 1014,8 10 6 0,0
16.10.2017 09:00:00 18,0 13,1 16,5 15,2 14,6 26 14 40 22 S 1014,1 10 0 0,0
16.10.2017 08:00:00 18,1 13,4 16,9 15,2 14,6 21 11 37 20 S 1014,5 10 0 0,0
16.10.2017 07:00:00 18,7 13,8 17,5 15,1 14,6 26 14 40 22 S 1015,0 10 0 0,0
16.10.2017 06:00:00 18,9 14,4 17,8 15,1 14,6 24 13 39 21 S 1015,3 10 0 0,0
16.10.2017 05:00:00 19,8 15,0 18,5 15,1 14,6 28 15 45 24 S 1016,1 10 0 0,0
16.10.2017 04:00:00 20,0 15,0 19,0 15,1 14,6 28 15 46 25 S 1016,4 10 0 0,0
16.10.2017 03:00:00 20,4 14,3 18,9 15,1 14,6 29 16 45 25 S 1016,6 10 0 0,0
16.10.2017 02:00:00 19,8 13,7 18,5 15,1 14,6 29 16 45 24 SSW 1016,7 10 0 0,0
16.10.2017 01:00:00 19,5 13,9 18,3 15,1 14,6 29 15 44 24 SSW 1016,8 35 0 0,0
16.10.2017 00:00:00 19,3 13,9 17,8 15,1 14,6 29 16 46 25 SSW 1017,1 10 0 0,0
15.10.2017 23:00:00 19,0 14,7 17,7 15,0 14,5 24 13 43 23 S 1017,0 10 0 0,0
15.10.2017 22:00:00 19,1 14,8 18,3 15,0 14,6 26 14 42 23 S 1017,1 10 0 0,0
15.10.2017 21:00:00 19,5 14,7 18,4 15,0 14,6 28 15 40 22 S 1017,4 10 0 0,0
15.10.2017 20:00:00 19,1 14,4 17,8 15,0 14,5 22 12 37 20 S 1017,5 10 0 0,0
15.10.2017 19:00:00 19,0 13,6 17,1 14,9 14,5 21 11 32 17 S 1017,3 10 8 0,0
15.10.2017 18:00:00 19,3 13,9 18,7 14,9 14,6 16 9 26 14 S 1017,4 10 13 0,0
15.10.2017 17:00:00 19,4 13,6 19,2 14,8 14,6 16 9 29 15 SSE 1017,6 10 38 0,0
15.10.2017 16:00:00 20,3 13,5 22,3 14,7 14,6 18 10 31 17 S 1017,8 10 57 0,0
15.10.2017 15:00:00 19,9 14,3 23,0 14,7 14,5 18 10 33 18 S 1018,2 10 60 0,0
15.10.2017 14:00:00 18,5 14,0 22,4 14,7 14,6 21 11 31 17 S 1018,7 10 60 0,0
15.10.2017 13:00:00 17,4 14,1 17,9 14,6 14,5 18 10 35 19 S 1019,2 10 26 0,2
15.10.2017 12:00:00 16,1 13,8 16,4 14,7 14,5 21 11 36 20 SSW 1019,3 9 0 0,0
15.10.2017 11:00:00 15,6 13,8 15,2 14,7 14,6 16 9 32 17 SSW 1019,4 7 0 0,0
15.10.2017 10:00:00 15,1 13,8 14,6 14,7 14,6 21 11 31 17 SSW 1019,6 6 0 0,0

tt = Température de l'air
td = dewpoint
tt 5cm = Température de l'air 5cm
tt -20cm = Température de l'air -20cm
tt -100cm = Température de l'air -100cm
ff = Vitesse du vent
fx = gusts
dd = Direction du vent
ppp = reduced air pressure
vv = visibility
sd = Ensoleillement
rr = Quantités de précipitations

stations d'obs. à proximité